New Ulm, MN

1:31 AM CDT on May 26, 2017 (GMT -0500)
New Ulm Municipal

Weather History for KULM - February, 2013

Change the Weather History Date:

Monday, February 25, 2013

  Actual Average Record
Temperature  
Mean Temperature 24 °F -  
Max Temperature 28 °F 34 °F 57 °F (1976)
Min Temperature 21 °F 13 °F -26 °F (1967)
Degree Days  
Heating Degree Days 40    
Moisture  
Dew Point 20 °F    
Average Humidity 85    
Maximum Humidity 93    
Minimum Humidity 74    
Precipitation  
Precipitation 0.00 in - - ()
Sea Level Pressure  
Sea Level Pressure 30.07 in    
Wind  
Wind Speed 2 mph (WNW)    
Max Wind Speed 8 mph    
Max Gust Speed -    
Visibility 6 miles    
Events Fog    
Averages and records for this station are not official NWS values.
T = Trace of Precipitation, MM = Missing Value Source: NWS Daily Summary

Daily Weather History Graph

Daily Weather History Graph

Search for Another Location

Airport or City:

Trip Planner

Search our weather history database for the weather conditions in past years. The results will help you decide how hot, cold, wet, or windy it might be!

Date:

Astronomy

Feb. 25, 2013 Rise Set
Actual Time 7:01 AM CST 6:01 PM CST
Civil Twilight 6:32 AM CST 6:30 PM CST
Nautical Twilight 5:58 AM CST 7:04 PM CST
Astronomical Twilight 5:25 AM CST 7:37 PM CST
Moon 6:17 PM CST (2/25) 6:30 AM CST (2/25)
Length of Visible Light 11h 58m
Length of Day
10h 59m
Full, 100% of the Moon is Illuminated
Feb 25
Full
Feb 25
Full
Mar 4
Last Quarter
Mar 11
New
Mar 19
First Quarter

Hourly Weather History & Observations

Time (CST) Temp. Windchill Dew Point Humidity Pressure Visibility Wind Dir Wind Speed Gust Speed Precip Events Conditions
12:12 AM 24.8 °F 20.5 °F 19.4 °F 80% 30.08 in 10.0 mi NW 3.5 mph - N/A   Clear
12:33 AM 24.8 °F 20.5 °F 19.4 °F 80% 30.08 in 10.0 mi NNW 3.5 mph - N/A   Clear
12:53 AM 24.8 °F - 17.6 °F 74% 30.08 in 10.0 mi Calm Calm - N/A   Clear
1:13 AM 24.8 °F - 19.4 °F 80% 30.07 in 10.0 mi Calm Calm - N/A   Clear
1:33 AM 24.8 °F - 17.6 °F 74% 30.08 in 10.0 mi Calm Calm - N/A   Clear
1:53 AM 24.8 °F - 17.6 °F 74% 30.08 in 10.0 mi Calm Calm - N/A   Clear
2:12 AM 24.8 °F - 19.4 °F 80% 30.08 in 10.0 mi Calm Calm - N/A   Clear
2:33 AM 24.8 °F - 19.4 °F 80% 30.07 in 10.0 mi Calm Calm - N/A   Clear
2:53 AM 23.0 °F 18.4 °F 19.4 °F 86% 30.08 in 10.0 mi West 3.5 mph - N/A   Clear
3:12 AM 23.0 °F 18.4 °F 19.4 °F 86% 30.07 in 10.0 mi West 3.5 mph - N/A   Clear
3:33 AM 23.0 °F - 19.4 °F 86% 30.07 in 10.0 mi Calm Calm - N/A   Clear
3:53 AM 23.0 °F - 19.4 °F 86% 30.06 in 10.0 mi Calm Calm - N/A   Clear
4:12 AM 23.0 °F - 19.4 °F 86% 30.06 in 10.0 mi Calm Calm - N/A   Clear
4:33 AM 23.0 °F - 19.4 °F 86% 30.06 in 10.0 mi Calm Calm - N/A   Clear
4:53 AM 23.0 °F - 19.4 °F 86% 30.06 in 10.0 mi Calm Calm - N/A   Clear
5:12 AM 23.0 °F - 19.4 °F 86% 30.06 in 10.0 mi Calm Calm - N/A   Clear
5:33 AM 23.0 °F 17.0 °F 19.4 °F 86% 30.06 in 10.0 mi West 4.6 mph - N/A   Clear
5:53 AM 23.0 °F 15.8 °F 19.4 °F 86% 30.08 in 10.0 mi West 5.8 mph - N/A   Scattered Clouds
6:12 AM 23.0 °F - 19.4 °F 86% 30.08 in 10.0 mi Calm Calm - N/A   Scattered Clouds
6:33 AM 23.0 °F 18.4 °F 19.4 °F 86% 30.08 in 10.0 mi West 3.5 mph - N/A   Mostly Cloudy
6:53 AM 23.0 °F 18.4 °F 19.4 °F 86% 30.08 in 10.0 mi WNW 3.5 mph - N/A   Scattered Clouds
7:12 AM 21.2 °F - 17.6 °F 86% 30.08 in 10.0 mi Calm Calm - N/A   Scattered Clouds
7:33 AM 23.0 °F 18.4 °F 19.4 °F 86% 30.08 in 10.0 mi WNW 3.5 mph - N/A   Scattered Clouds
7:53 AM 23.0 °F - 19.4 °F 86% 30.09 in 7.0 mi Calm Calm - N/A   Scattered Clouds
8:13 AM 23.0 °F - 19.4 °F 86% 30.09 in 7.0 mi Calm Calm - N/A   Scattered Clouds
8:33 AM 23.0 °F - 19.4 °F 86% 30.10 in 7.0 mi Calm Calm - N/A   Clear
8:52 AM 23.0 °F 17.0 °F 19.4 °F 86% 30.10 in 5.0 mi West 4.6 mph - N/A   Clear
9:13 AM 23.0 °F 15.8 °F 21.2 °F 93% 30.10 in 1.5 mi WNW 5.8 mph - N/A   Mist
9:33 AM 23.0 °F 14.7 °F 21.2 °F 93% 30.09 in 0.8 mi WNW 6.9 mph - N/A   Mostly Cloudy
9:53 AM 23.0 °F 17.0 °F 21.2 °F 93% 30.09 in 1.0 mi West 4.6 mph - N/A   Mostly Cloudy
10:13 AM 23.0 °F 14.7 °F 21.2 °F 93% 30.09 in 0.8 mi WNW 6.9 mph - N/A   Mostly Cloudy
10:32 AM 24.8 °F 16.1 °F 21.2 °F 86% 30.10 in 1.5 mi WNW 8.1 mph - N/A   Mostly Cloudy
10:53 AM 24.8 °F 19.1 °F 21.2 °F 86% 30.10 in 2.0 mi West 4.6 mph - N/A   Mist
11:13 AM 24.8 °F 19.1 °F 21.2 °F 86% 30.10 in 2.0 mi West 4.6 mph - N/A   Mist
11:32 AM 24.8 °F 20.5 °F 21.2 °F 86% 30.10 in 2.5 mi West 3.5 mph - N/A   Mist
11:53 AM 24.8 °F 19.1 °F 21.2 °F 86% 30.09 in 3.0 mi West 4.6 mph - N/A   Mist
12:13 PM 24.8 °F - 21.2 °F 86% 30.09 in 4.0 mi Calm Calm - N/A   Clear
12:32 PM 26.6 °F - 21.2 °F 80% 30.09 in 3.0 mi Calm Calm - N/A   Clear
12:53 PM 26.6 °F 22.6 °F 23.0 °F 86% 30.08 in 4.0 mi West 3.5 mph - N/A   Clear
1:13 PM 26.6 °F 22.6 °F 23.0 °F 86% 30.07 in 5.0 mi West 3.5 mph - N/A   Clear
1:32 PM 26.6 °F 21.2 °F 23.0 °F 86% 30.06 in 5.0 mi WNW 4.6 mph - N/A   Clear
1:53 PM 28.4 °F - 23.0 °F 80% 30.05 in 7.0 mi Calm Calm - N/A   Clear
2:13 PM 28.4 °F 23.3 °F 23.0 °F 80% 30.05 in 7.0 mi West 4.6 mph - N/A   Clear
2:32 PM 28.4 °F 21.2 °F 23.0 °F 80% 30.05 in 7.0 mi NW 6.9 mph - N/A   Clear
2:53 PM 26.6 °F 20.0 °F 23.0 °F 86% 30.06 in 7.0 mi WNW 5.8 mph - N/A   Clear
3:13 PM 26.6 °F 20.0 °F 23.0 °F 86% 30.05 in 7.0 mi West 5.8 mph - N/A   Clear
3:32 PM 28.4 °F 24.6 °F 23.0 °F 80% 30.05 in 7.0 mi WSW 3.5 mph - N/A   Clear
3:53 PM 26.6 °F - 21.2 °F 80% 30.06 in 7.0 mi Calm Calm - N/A   Clear
4:13 PM 28.4 °F - 21.2 °F 74% 30.06 in 7.0 mi Calm Calm - N/A   Clear
4:32 PM 28.4 °F - 21.2 °F 74% 30.05 in 7.0 mi Calm Calm - N/A   Clear
4:53 PM 28.4 °F - 21.2 °F 74% 30.06 in 7.0 mi Calm Calm - N/A   Clear
8:13 PM 24.8 °F 19.1 °F 21.2 °F 86% 30.05 in 5.0 mi NW 4.6 mph - N/A   Clear
8:14 PM 24.8 °F 19.1 °F 21.2 °F 86% 30.05 in 5.0 mi NW 4.6 mph - N/A   Clear
8:32 PM 24.8 °F - 21.2 °F 86% 30.04 in 5.0 mi Calm Calm - N/A   Clear
8:53 PM 24.8 °F 20.5 °F 21.2 °F 86% 30.04 in 5.0 mi NW 3.5 mph - N/A   Clear
9:13 PM 24.8 °F - 21.2 °F 86% 30.04 in 5.0 mi Calm Calm - N/A   Clear
9:53 PM 24.8 °F - 21.2 °F 86% 30.02 in 4.0 mi Calm Calm - N/A   Clear
10:13 PM 23.0 °F - 21.2 °F 93% 30.02 in 4.0 mi Calm Calm - N/A   Clear
10:32 PM 23.0 °F - 19.4 °F 86% 30.03 in 3.0 mi Calm Calm - N/A   Mist
10:53 PM 23.0 °F 18.4 °F 19.4 °F 86% 30.02 in 2.5 mi NNE 3.5 mph - N/A   Mist
11:13 PM 21.2 °F 16.4 °F 19.4 °F 93% 30.03 in 0.8 mi NNW 3.5 mph - N/A   Overcast
11:32 PM 21.2 °F 11.7 °F 19.4 °F 93% 30.02 in 0.5 mi NE 8.1 mph - N/A Fog Light Freezing Fog
11:53 PM 21.2 °F - 19.4 °F 93% 30.03 in 0.2 mi Calm Calm - N/A Fog Light Freezing Fog